1320624025778,179.526
1320624085778,178.988
1320624145778,179.306
1320624205778,179.127
1320624265778,179.098
1320624325778,179.024
1320624385778,179.182
1320624445778,178.786
1320624505778,179.096
1320624565778,179.036
1320624625778,178.675
1320624685778,179.135
1320624745778,178.992
1320624805778,179.228
1320624865778,179.195
1320624925778,179.063
1320624985778,179.568
1320625045778,179.294
1320625105778,179.539
1320625165778,179.324
1320625225778,179.820
1320625285778,179.650
1320625345778,179.679
1320625405778,179.692
1320625465778,179.263
1320625525778,179.429
1320625585778,179.603
1320625645778,179.498
1320625705778,179.555
1320625765778,179.472
1320625825778,179.680
1320625885778,179.141
1320625945778,179.016
1320626005778,179.312
1320626065778,179.275
1320626125778,179.175
1320626185778,179.039
1320626245778,179.469
1320626305778,179.703
1320626365778,179.521
1320626425778,179.712
1320626485778,179.535
1320626545778,179.459
1320626605778,179.425
1320626665778,179.174
1320626725778,179.707
1320626785778,179.531
1320626845778,179.413
1320626905778,179.060
1320626965778,179.312
1320627025778,179.305
1320627085778,179.278
1320627145778,179.554
1320627205778,179.328
1320627265778,179.603
1320627325778,179.605
1320627385778,179.358
1320627445778,179.279
1320627505778,179.336
1320627565778,179.605
1320627625788,179.245
1320627685788,179.583
1320627745788,179.425
1320627805788,179.654
1320627865788,179.484
1320627925788,179.368
1320627985788,179.514
1320628045788,179.517
1320628105788,179.183
1320628165788,179.161
1320628225788,179.179
1320628285788,179.068
1320628345788,179.389
1320628405788,179.211
1320628465788,179.029
1320628525788,178.711
1320628585788,179.048
1320628645788,179.272
1320628705788,178.954
1320628765788,178.771
1320628825788,179.216
1320628885788,179.011
1320628945788,178.898
1320629005788,178.558
1320629065788,179.000
1320629125788,178.856
1320629185788,178.876
1320629245788,178.717
1320629305788,178.985
1320629365788,178.863
1320629425788,178.899
1320629485788,178.901
1320629545788,178.496
1320629605788,178.752
1320629665788,179.053
1320629725788,179.021
1320629785788,178.373
1320629845788,178.675
1320629905788,178.890
1320629965788,178.637
1320630025788,178.514
1320630085788,178.766
1320630145788,178.952
1320630205788,178.241
1320630265788,178.737
1320630325788,178.479
1320630385788,178.580
1320630445788,178.763
1320630505788,178.335
1320630565788,178.715
1320630625788,178.710
1320630685788,178.722
1320630745788,178.467
1320630805788,178.681
1320630865788,178.503
1320630925788,178.437
1320630985788,178.482
1320631045788,178.605
1320631105788,178.711
1320631165788,178.279
1320631225799,178.460
1320631285799,178.498
1320631345799,178.433
1320631405799,178.550
1320631465799,178.628
1320631525799,178.628
1320631585799,178.296
1320631645799,178.092
1320631705799,178.445
1320631765799,178.568
1320631825799,178.542
1320631885799,178.552
1320631945799,178.687
1320632005799,178.389
1320632065799,178.676
1320632125799,178.205
1320632185799,178.278
1320632245799,178.585
1320632305799,178.498
1320632365799,178.812
1320632425799,178.392
1320632485799,178.396
1320632545799,178.404
1320632605799,178.622
1320632665799,178.486
1320632725799,178.352
1320632785799,178.435
1320632845799,178.257
1320632905799,178.658
1320632965799,178.518
1320633025799,178.612
1320633085799,178.296
1320633145799,178.660
1320633205799,178.410
1320633265799,178.462
1320633325799,178.454
1320633385799,178.826
1320633445799,178.265
1320633505799,178.607
1320633565799,178.142
1320633625799,178.431
1320633685799,178.639
1320633745799,178.498
1320633805799,178.369
1320633865799,178.396
1320633925799,178.235
1320633985799,178.445
1320634045799,178.269
1320634105799,178.574
1320634165799,178.790
1320634225799,178.956
1320634285799,178.475
1320634345799,178.803
1320634405799,178.797
1320634465799,178.710
1320634525799,178.626
1320634585799,178.567
1320634645799,178.909
1320634705799,178.659
1320634765799,178.588
1320634825809,178.509
1320634885809,179.195
1320634945809,178.849
1320635005809,178.565
1320635065809,178.690
1320635125809,178.513
1320635185809,178.560
1320635245809,178.646
1320635305809,178.919
1320635365809,179.616
1320635425809,179.274
1320635485809,179.253
1320635545809,179.188
1320635605809,179.145
1320635665809,179.302
1320635725809,178.963
1320635785809,179.178
1320635845809,179.241
1320635905809,179.088
1320635965809,179.126
1320636025809,178.820
1320636085809,178.522
1320636145809,178.632
1320636205809,178.672
1320636265809,178.879
1320636325809,178.816
1320636385809,178.644
1320636445809,178.590
1320636505809,178.380
1320636565809,178.496
1320636625809,178.320
1320636685809,178.549
1320636745809,178.477
1320636805809,178.570
1320636865809,178.403
1320636925809,178.742
1320636985809,178.577
1320637045809,178.403
1320637105809,178.559
1320637165809,178.695
1320637225809,178.253
1320637285809,178.278
1320637345809,178.426
1320637405809,178.442
1320637465809,178.390
1320637525809,178.490
1320637585809,178.292
1320637645809,178.372
1320637705809,178.457
1320637765809,178.486
1320637825809,178.450
1320637885809,178.538
1320637945809,178.704
1320638005809,178.645
1320638065809,178.882
1320638125809,178.753
1320638185809,178.515
1320638245809,178.381
1320638305809,178.406
1320638365809,178.205
1320638425819,178.433
1320638485819,178.407
1320638545819,178.404
1320638605819,178.076
1320638665819,178.118
1320638725819,178.204
1320638785819,177.894
1320638845819,178.329
1320638905819,178.431
1320638965819,178.153
1320639025819,177.889
1320639085819,178.117
1320639145819,177.973
1320639205819,177.827
1320639265819,177.257
1320639325819,177.791
1320639385819,178.059
1320639445819,177.836
1320639505819,178.057
1320639565819,177.562
1320639625819,177.889
1320639685819,177.714
1320639745819,177.596
1320639805819,177.694
1320639865819,177.526
1320639925819,177.452
1320639985819,177.638
1320640045819,177.645
1320640105819,177.187
1320640165819,177.643
1320640225819,177.162
1320640285819,177.300
1320640345819,177.658
1320640405819,177.234
1320640465819,177.131
1320640525819,176.841
1320640585819,177.008
1320640645819,177.206
1320640705819,177.241
1320640765819,177.024
1320640825819,177.310
1320640885819,177.265
1320640945819,177.049
1320641005819,177.033
1320641065819,176.815
1320641125819,176.995
1320641185819,176.979
1320641245819,176.742
1320641305819,176.872
1320641365819,176.862
1320641425819,176.859
1320641485819,176.930
1320641545819,176.786
1320641605819,176.730
1320641665819,176.844
1320641725819,176.505
1320641785819,176.830
1320641845819,176.533
1320641905819,176.374
1320641965819,176.576
1320642025830,176.417
1320642085830,176.740
1320642145830,176.698
1320642205829,176.920
1320642265829,176.588
1320642325830,176.512
1320642385830,176.274
1320642445830,176.759
1320642505830,176.420
1320642565830,176.477
1320642625830,176.581
1320642685830,176.700
1320642745830,176.505
1320642805830,176.414
1320642865829,176.618
1320642925829,176.266
1320642985829,176.778
1320643045829,176.677
1320643105829,176.346
1320643165829,176.590
1320643225829,176.823
1320643285830,176.617
1320643345830,176.507
1320643405830,176.489
1320643465830,177.083
1320643525829,176.569
1320643585829,176.968
1320643645830,176.762
1320643705830,176.841
1320643765830,176.982
1320643825830,176.575
1320643885830,176.648
1320643945830,176.635
1320644005830,176.714
1320644065830,176.802
1320644125830,176.635
1320644185830,176.491
1320644245829,177.227
1320644305829,176.889
1320644365829,176.642
1320644425829,176.631
1320644485829,176.844
1320644545829,176.918
1320644605829,176.885
1320644665830,176.894
1320644725830,176.765
1320644785830,176.767
1320644845830,177.277
1320644905829,177.041
1320644965829,177.016
1320645025830,177.063
1320645085830,177.073
1320645145830,177.385
1320645205830,176.908
1320645265830,177.096
1320645325830,176.873
1320645385830,177.288
1320645445830,176.933
1320645505830,176.738
1320645565829,177.128
1320645625840,176.938
1320645685840,176.479
1320645745840,176.710
1320645805840,176.875
1320645865840,177.032
1320645925840,176.771
1320645985840,176.662
1320646045840,176.888
1320646105840,177.125
1320646165840,177.033
1320646225840,176.951
1320646285840,176.946
1320646345840,177.108
1320646405840,176.866
1320646465840,177.109
1320646525840,176.935
1320646585840,176.596
1320646645840,176.977
1320646705840,177.284
1320646765840,176.834
1320646825840,177.241
1320646885840,177.257
1320646945840,176.860
1320647005840,176.888
1320647065840,177.229
1320647125840,177.173
1320647185840,176.970
1320647245840,177.331
1320647305840,177.306
1320647365840,176.841
1320647425840,177.326
1320647485840,176.755
1320647545840,176.822
1320647605840,176.618
1320647665840,176.417
1320647725840,176.574
1320647785840,176.612
1320647845840,176.396
1320647905840,176.349
1320647965840,176.671
1320648025840,176.571
1320648085840,176.593
1320648145840,176.616
1320648205840,176.610
1320648265840,176.535
1320648325840,176.462
1320648385840,176.311
1320648445840,176.399
1320648505840,176.646
1320648565840,176.381
1320648625840,176.537
1320648685840,176.572
1320648745840,176.500
1320648805840,176.469
1320648865840,176.367
1320648925840,176.845
1320648985840,176.519
1320649045840,176.511
1320649105840,176.609
1320649165840,176.719
1320649225850,176.782
1320649285850,176.711
1320649345850,176.649
1320649405851,176.603
1320649465851,176.534
1320649525851,176.630
1320649585851,176.427
1320649645850,176.442
1320649705850,176.637
1320649765850,176.417
1320649825850,176.984
1320649885850,176.588
1320649945850,176.828
1320650005850,176.808
1320650065850,177.024
1320650125850,176.839
1320650185850,177.123
1320650245850,176.482
1320650305850,176.906
1320650365850,176.810
1320650425850,176.943
1320650485850,177.073
1320650545850,176.929
1320650605850,177.115
1320650665850,176.825
1320650725851,177.029
1320650785851,176.683
1320650845851,176.786
1320650905851,176.899
1320650965850,177.043
1320651025850,176.796
1320651085850,176.397
1320651145850,177.009
1320651205850,176.958
1320651265850,177.044
1320651325850,177.058
1320651385850,177.207
1320651445850,176.749
1320651505850,177.276
1320651565850,177.221
1320651625850,177.159
1320651685850,176.960
1320651745850,177.057
1320651805850,177.150
1320651865850,177.427
1320651925850,177.177
1320651985850,177.161
1320652045850,177.032
1320652105851,177.199
1320652165851,177.292
1320652225851,177.482
1320652285851,177.051
1320652345850,177.233
1320652405850,177.452
1320652465850,177.373
1320652525850,177.605
1320652585850,177.460
1320652645850,177.400
1320652705850,177.561
1320652765850,177.428
1320652825861,177.194
1320652885861,177.141
1320652945861,177.201
1320653005861,177.058
1320653065861,177.393
1320653125861,177.363
1320653185861,177.565
1320653245861,177.183
1320653305861,177.148
1320653365861,177.358
1320653425861,177.279
1320653485861,177.156
1320653545861,177.426
1320653605861,177.073
1320653665861,177.516
1320653725861,176.957
1320653785861,176.803
1320653845861,177.464
1320653905861,177.716
1320653965861,177.097
1320654025861,177.438
1320654085861,177.008
1320654145861,177.604
1320654205861,177.116
1320654265861,177.376
1320654325861,177.246
1320654385861,177.449
1320654445861,177.205
1320654505861,177.347
1320654565861,177.198
1320654625861,177.182
1320654685861,177.290
1320654745861,177.285
1320654805861,177.586
1320654865861,177.148
1320654925861,177.364
1320654985861,177.285
1320655045861,177.456
1320655105861,177.458
1320655165861,177.135
1320655225861,177.408
1320655285861,177.579
1320655345861,177.405
1320655405861,177.521
1320655465861,177.074
1320655525861,176.918
1320655585861,177.251
1320655645861,177.547
1320655705861,177.450
1320655765861,177.002
1320655825861,177.414
1320655885861,177.192
1320655945861,176.965
1320656005861,177.246
1320656065861,177.326
1320656125861,177.238
1320656185861,176.908
1320656245861,177.018
1320656305861,177.107
1320656365861,176.799
1320656425872,176.921
1320656485872,177.202
1320656545872,176.968
1320656605872,176.995
1320656665872,176.644
1320656725872,176.988
1320656785872,176.492
1320656845872,176.772
1320656905872,176.885
1320656965872,176.727
1320657025872,176.522
1320657085872,176.705
1320657145872,176.828
1320657205872,176.641
1320657265872,176.417
1320657325872,176.348
1320657385872,176.579
1320657445872,176.914
1320657505872,176.385
1320657565872,176.457
1320657625872,176.740
1320657685872,176.843
1320657745872,176.599
1320657805872,176.604
1320657865872,176.593
1320657925872,176.964
1320657985872,176.839
1320658045872,176.630
1320658105872,176.612
1320658165872,176.935
1320658225872,177.001
1320658285872,176.952
1320658345872,176.452
1320658405872,176.512
1320658465872,176.430
1320658525872,176.663
1320658585872,176.758
1320658645872,176.989
1320658705872,176.631
1320658765872,177.104
1320658825872,177.417
1320658885872,176.828
1320658945872,177.091
1320659005872,177.313
1320659065872,177.021
1320659125872,176.904
1320659185872,176.953
1320659245872,177.153
1320659305872,176.880
1320659365872,177.269
1320659425872,176.985
1320659485872,177.129
1320659545872,176.961
1320659605872,176.696
1320659665872,176.882
1320659725872,176.844
1320659785872,177.095
1320659845872,177.232
1320659905872,176.697
1320659965872,176.615
1320660025883,176.735
1320660085883,176.938
1320660145883,176.882
1320660205883,176.911
1320660265883,177.193
1320660325883,176.789
1320660385883,176.610
1320660445883,176.962
1320660505883,176.921
1320660565883,177.004
1320660625883,176.698
1320660685883,176.812
1320660745883,176.695
1320660805883,176.595
1320660865883,176.863
1320660925883,177.001
1320660985883,176.585
1320661045883,177.257
1320661105883,176.721
1320661165883,176.824
1320661225883,176.864
1320661285883,176.803
1320661345883,176.795
1320661405883,176.549
1320661465883,176.613
1320661525883,176.766
1320661585883,176.662
1320661645883,176.723
1320661705883,176.934
1320661765883,176.831
1320661825883,176.966
1320661885883,177.012
1320661945883,177.059
1320662005883,177.228
1320662065883,176.773
1320662125883,177.090
1320662185883,177.196
1320662245883,177.168
1320662305883,177.034
1320662365883,176.953
1320662425883,177.220
1320662485883,177.433
1320662545883,177.469
1320662605883,177.455
1320662665883,177.363
1320662725883,177.071
1320662785883,177.098
1320662845883,177.434
1320662905883,177.441
1320662965883,177.403
1320663025883,177.315
1320663085883,177.554
1320663145883,177.305
1320663205883,177.606
1320663265883,177.318
1320663325883,177.498
1320663385883,177.381
1320663445883,177.269
1320663505883,177.494
1320663565883,177.489
1320663625895,177.358
1320663685895,177.520
1320663745895,177.076
1320663805895,177.502
1320663865895,177.355
1320663925895,177.512
1320663985895,177.562
1320664045895,177.633
1320664105895,177.574
1320664165895,177.282
1320664225895,177.658
1320664285895,177.609
1320664345895,177.507
1320664405895,177.600
1320664465895,177.915
1320664525895,177.918
1320664585895,177.927
1320664645895,177.792
1320664705895,177.670
1320664765895,177.851
1320664825895,178.254
1320664885895,178.004
1320664945895,177.855
1320665005895,177.948
1320665065895,178.091
1320665125895,177.904
1320665185895,178.090
1320665245895,177.907
1320665305895,177.993
1320665365895,178.416
1320665425895,178.449
1320665485895,178.152
1320665545895,177.920
1320665605895,178.097
1320665665895,178.295
1320665725895,178.132
1320665785895,178.158
1320665845895,178.420
1320665905895,178.061
1320665965895,178.141
1320666025895,177.976
1320666085895,178.364
1320666145895,178.347
1320666205895,178.658
1320666265895,178.395
1320666325895,178.213
1320666385895,177.864
1320666445895,178.290
1320666505895,178.204
1320666565895,178.350
1320666625895,178.369
1320666685895,178.517
1320666745895,178.239
1320666805895,178.726
1320666865895,178.514
1320666925895,178.289
1320666985895,178.687
1320667045895,178.758
1320667105895,178.457
1320667165895,178.928
1320667225907,178.424
1320667285907,178.679
1320667345907,178.561
1320667405907,178.727
1320667465907,178.705
1320667525907,178.947
1320667585907,178.826
1320667645907,179.226
1320667705907,179.075
1320667765907,179.229
1320667825907,179.018
1320667885907,179.240
1320667945907,179.174
1320668005907,179.246
1320668065907,179.159
1320668125907,179.092
1320668185907,178.966
1320668245907,179.212
1320668305907,179.094
1320668365907,178.908
1320668425907,179.238
1320668485907,179.281
1320668545907,179.042
1320668605907,178.874
1320668665907,179.152
1320668725907,179.099
1320668785907,179.322
1320668845907,179.051
1320668905907,179.388
1320668965907,179.273
1320669025907,179.452
1320669085907,179.422
1320669145907,179.320
1320669205907,179.738
1320669265907,179.513
1320669325907,179.569
1320669385907,179.412
1320669445907,179.576
1320669505907,179.522
1320669565907,179.729
1320669625907,179.600
1320669685907,179.555
1320669745907,179.632
1320669805907,179.961
1320669865907,179.641
1320669925907,179.500
1320669985907,179.833
1320670045907,179.851
1320670105907,179.924
1320670165907,179.429
1320670225907,179.858
1320670285907,179.617
1320670345907,179.759
1320670405907,179.794
1320670465907,179.599
1320670525907,179.548
1320670585907,179.858
1320670645907,179.991
1320670705907,179.850
1320670765907,179.693
1320670825918,179.794
1320670885918,179.559
1320670945918,180.117
1320671005918,179.783
1320671065918,179.807
1320671125918,179.542
1320671185918,179.922
1320671245918,179.923
1320671305918,180.234
1320671365918,180.119
1320671425918,180.195
1320671485918,180.125
1320672025918,180.348
1320672085918,177.655
1320672145918,180.209
1320672205918,180.438
1320672265918,180.294
1320672325918,180.674
1320672385918,180.433
1320672445918,180.270
1320672505918,180.317
1320672565918,180.037
1320672625918,180.605
1320672685918,180.537
1320672745918,180.692
1320672805918,180.359
1320672865918,180.365
1320672925918,180.210
1320672985918,180.539
1320673045918,180.622
1320673105918,180.696
1320673165918,180.459
1320673225918,180.583
1320673285918,180.710
1320673345918,180.632
1320673405918,180.488
1320673465918,180.637
1320673525918,180.432
1320673585918,180.427
1320673645918,180.405
1320673705918,180.488
1320673765918,180.062
1320673825918,180.530
1320673885918,180.597
1320673945918,180.361
1320674005918,180.385
1320674065918,180.666
1320674125918,180.362
1320674185918,180.602
1320674245918,180.280
1320674305918,180.531
1320674365918,180.836
1320674425931,180.577
1320674485931,180.440
1320674545931,180.542
1320674605931,180.678
1320674665931,180.725
1320674725931,180.609
1320674785931,180.665
1320674845931,180.619
1320674905931,180.514
1320674965931,180.627
1320675025931,180.450
1320675085931,180.778
1320675145931,180.934
1320675205931,180.846
1320675265931,181.079
1320675325931,181.002
1320675385931,180.660
1320675445931,180.991
1320675505931,181.127
1320675565931,181.092
1320675625931,181.141
1320675685931,181.272
1320675745931,181.100
1320675805931,180.987
1320675865931,181.113
1320675925931,180.725
1320675985931,181.005
1320676045931,181.169
1320676105931,181.068
1320676165931,181.440
1320676225931,180.697
1320676285931,181.204
1320676345930,181.357
1320676405931,181.246
1320676465931,181.123
1320676525931,181.096
1320676585931,180.796
1320676645931,181.204
1320676705931,180.816
1320676765931,181.156
1320676825931,180.924
1320676885931,181.204
1320676945931,181.016
1320677005931,180.866
1320677065931,181.195
1320677125931,181.192
1320677185931,181.199
1320677245931,181.210
1320677305931,180.875
1320677365931,181.046
1320677425931,181.036
1320677485931,180.971
1320677545931,181.234
1320677605931,181.129
1320677665931,181.205
1320677725931,181.467
1320677785931,181.364
1320677845931,181.328
1320677905931,181.376
1320677965931,181.377
1320678025943,180.820
1320678085943,181.415
1320678145943,181.241
1320678205943,181.258
1320678265943,181.018
1320678325943,181.088
1320678385943,180.782
1320678445943,181.078
1320678505943,181.060
1320678565943,181.042
1320678625943,180.698
1320678685943,181.348
1320678745943,181.248
1320678805943,181.374
1320678865943,181.503
1320678925943,181.111
1320678985943,181.312
1320679045943,181.275
1320679105943,181.106
1320679165943,181.339
1320679225943,181.184
1320679285943,181.304
1320679345943,181.300
1320679405943,181.172
1320679465943,181.412
1320679525943,181.195
1320679585943,181.329
1320679645943,181.513
1320679705943,181.441
1320679765943,181.458
1320679825943,181.544
1320679885943,181.399
1320679945943,181.401
1320680005943,181.382
1320680065943,181.318
1320680125943,181.289
1320680185943,181.090
1320680245943,181.123
1320680305943,181.007
1320680365943,181.253
1320680425943,181.351
1320680485943,181.488
1320680545943,181.607
1320680605943,181.647
1320680665943,181.411
1320680725943,181.113
1320680785943,181.427
1320680845943,181.309
1320680905943,181.378
1320680965943,181.590
1320681025943,181.514
1320681085943,181.224
1320681145943,181.158
1320681205943,181.691
1320681265943,181.144
1320681325943,181.320
1320681385943,181.295
1320681445943,181.424
1320681505943,181.099
1320681565943,181.471
1320681625934,181.356
1320681685934,181.076
1320681745934,181.410
1320681805934,181.262
1320681865934,181.540
1320681925934,181.356
1320681985934,181.048
1320682045934,181.851
1320682105934,181.720
1320682165934,181.607
1320682225934,181.240
1320682285934,181.683
1320682345934,181.663
1320682405934,181.327
1320682465934,181.267
1320682525934,181.283
1320682585934,181.416
1320682645934,181.405
1320682705934,181.734
1320682765933,181.424
1320682825933,181.318
1320682885934,181.346
1320682945934,181.420
1320683005934,181.610
1320683065934,181.364
1320683125934,181.376
1320683185934,181.395
1320683245934,181.019
1320683305934,181.647
1320683365934,181.543
1320683425934,181.241
1320683485934,181.463
1320683545934,181.597
1320683605934,181.689
1320683665934,181.761
1320683725934,181.240
1320683785934,181.635
1320683845934,181.534
1320683905934,181.247
1320683965934,181.422
1320684025934,181.892
1320684085933,181.535
1320684145933,181.436
1320684205933,181.626
1320684265934,181.578
1320684325934,181.752
1320684385934,181.590
1320684445934,181.626
1320684505934,181.834
1320684565934,181.576
1320684625934,181.418
1320684685934,182.023
1320684745934,181.743
1320684805934,182.056
1320684865934,181.626
1320684925934,181.763
1320684985934,181.503
1320685045934,181.669
1320685105934,181.616
1320685165934,181.273
1320685225945,181.703
1320685285945,181.619
1320685345945,181.664
1320685405945,181.562
1320685465945,181.511
1320685525945,181.512
1320685585945,181.658
1320685645945,181.355
1320685705945,181.539
1320685765945,181.675
1320685825945,181.652
1320685885945,182.045
1320685945945,182.046
1320686005945,181.843
1320686065945,181.782
1320686125945,181.812
1320686185945,181.692
1320686245945,181.952
1320686305945,182.129
1320686365945,182.105
1320686425945,182.282
1320686485945,181.819
1320686545945,181.656
1320686605945,181.922
1320686665945,181.781
1320686725945,181.713
1320686785945,181.602
1320686845945,181.773
1320686905945,182.085
1320686965945,181.991
1320687025945,181.694
1320687085945,181.946
1320687145945,181.944
1320687205945,181.666
1320687265945,182.144
1320687325945,181.514
1320687385945,182.092
1320687445945,181.903
1320687505945,182.081
1320687565945,181.838
1320687625945,181.978
1320687685945,181.972
1320687745945,181.758
1320687805945,181.890
1320687865945,181.724
1320687925945,182.091
1320687985945,181.777
1320688045945,182.189
1320688105945,181.954
1320688165945,181.634
1320688225945,181.819
1320688285945,181.983
1320688345945,181.988
1320688405945,181.896
1320688465945,182.047
1320688525945,181.910
1320688585945,181.910
1320688645945,182.107
1320688705945,181.840
1320688765945,181.999
1320688825957,181.947
1320688885957,182.217
1320688945957,182.119
1320689005957,182.300
1320689065957,182.179
1320689125957,182.240
1320689185957,182.257
1320689245957,182.339
1320689305957,182.529
1320689365957,182.757
1320689425957,182.639
1320689485957,182.098
1320689545957,182.206
1320689605957,182.104
1320689665957,182.251
1320689725957,181.915
1320689785957,181.853
1320689845957,181.996